User: anonymous   Login
Location: American Canyon
(38.1966°N, 122.1514°W)
Time: 12:37:11
(UTC+00:00)
Language:

ALOS - Orbit

View from above orbital plane
View from above orbital plane
View from above satellite
View from above satellite

Ground track
Ground track

The orbit data is extracted from the following two-line orbital elements,

1 28931U 06002A   21019.09846643  .00000126  00000-0  33346-4 0  9996
2 28931  97.8683   0.5373 0001947  92.2140 267.9281 14.62787750799224
Epoch (UTC): 19 January 2021 02:21:47
Eccentricity: 0.0001947
inclination: 97.8683°
perigee height: 683 km
apogee height: 685 km
right ascension of ascending node: 0.5373°
argument of perigee: 92.2140°
revolutions per day: 14.62787750
mean anomaly at epoch: 267.9281°
orbit number at epoch: 79922

The dashed part of the orbit path shows where the satellite is in the earth's shadow,  

DLR